Patuxent River, MD

5:52 PM EDT on July 20, 2017 (GMT -0400)
Patuxent River Naval Air Station

Weather History for KNHK - August, 2013

Change the Weather History Date:

Thursday, August 8, 2013

  Actual Average Record
Temperature  
Mean Temperature 80 °F -  
Max Temperature 86 °F 88 °F 100 °F (1999)
Min Temperature 75 °F 71 °F 55 °F (2004)
Cooling Degree Days 14    
Growing Degree Days 30 (Base 50)    
Moisture  
Dew Point 71 °F    
Average Humidity 78    
Maximum Humidity 87    
Minimum Humidity 61    
Precipitation  
Precipitation 0.00 in - - ()
Sea Level Pressure  
Sea Level Pressure 30.04 in    
Wind  
Wind Speed 8 mph (South)    
Max Wind Speed 14 mph    
Max Gust Speed 18 mph    
Visibility 10 miles    
Events Rain    
Averages and records for this station are not official NWS values.
T = Trace of Precipitation, MM = Missing Value Source: NWS Daily Summary

Daily Weather History Graph

Daily Weather History Graph

Search for Another Location

Airport or City:

Trip Planner

Search our weather history database for the weather conditions in past years. The results will help you decide how hot, cold, wet, or windy it might be!

Date:

Astronomy

Aug. 08, 2013 Rise Set
Actual Time 6:14 AM EDT 8:07 PM EDT
Civil Twilight 5:45 AM EDT 8:36 PM EDT
Nautical Twilight 5:10 AM EDT 9:11 PM EDT
Astronomical Twilight 4:33 AM EDT 9:48 PM EDT
Moon 7:56 AM EDT (8/8) 8:47 PM EDT (8/8)
Length of Visible Light 14h 50m
Length of Day
13h 53m
Waxing Crescent, 3% of the Moon is Illuminated
Aug 8
Waxing Crescent
Aug 14
First Quarter
Aug 20
Full
Aug 28
Last Quarter
Sep 5
New

Hourly Weather History & Observations

Time (EDT) Temp. Heat Index Dew Point Humidity Pressure Visibility Wind Dir Wind Speed Gust Speed Precip Events Conditions
12:52 AM 75.9 °F - 69.1 °F 79% 30.06 in 10.0 mi South 5.8 mph - N/A   Clear
1:52 AM 75.9 °F - 70.0 °F 82% 30.05 in 10.0 mi South 9.2 mph - N/A   Clear
2:52 AM 75.9 °F - 70.0 °F 82% 30.05 in 10.0 mi SSW 6.9 mph - N/A   Clear
3:52 AM 75.9 °F - 70.0 °F 82% 30.04 in 10.0 mi SSW 9.2 mph - N/A   Clear
4:52 AM 75.0 °F - 70.0 °F 84% 30.04 in 10.0 mi South 5.8 mph - N/A   Clear
5:02 AM 75.2 °F - 69.8 °F 83% 30.03 in 10.0 mi South 8.1 mph - 0.00 in Rain Light Rain
5:30 AM 75.2 °F - 69.8 °F 83% 30.03 in 10.0 mi SSW 4.6 mph - 0.00 in   Mostly Cloudy
5:52 AM 75.0 °F - 70.0 °F 84% 30.04 in 10.0 mi Variable 5.8 mph - 0.00 in   Mostly Cloudy
6:52 AM 75.0 °F - 70.0 °F 84% 30.05 in 10.0 mi SSW 5.8 mph - N/A   Mostly Cloudy
7:52 AM 75.0 °F - 70.0 °F 84% 30.06 in 10.0 mi SSW 8.1 mph - N/A   Mostly Cloudy
8:52 AM 78.1 °F - 71.1 °F 79% 30.06 in 10.0 mi SSW 12.7 mph - N/A   Mostly Cloudy
9:52 AM 80.1 °F 83.6 °F 71.1 °F 74% 30.06 in 10.0 mi SW 9.2 mph - N/A   Mostly Cloudy
10:52 AM 82.9 °F 87.5 °F 71.1 °F 67% 30.06 in 10.0 mi SSW 8.1 mph - N/A   Mostly Cloudy
11:52 AM 84.0 °F 89.6 °F 72.0 °F 67% 30.06 in 10.0 mi South 10.4 mph 17.3 mph N/A   Mostly Cloudy
12:52 PM 84.0 °F 87.8 °F 69.1 °F 61% 30.05 in 10.0 mi South 13.8 mph 17.3 mph N/A   Mostly Cloudy
1:52 PM 84.9 °F 89.4 °F 70.0 °F 61% 30.04 in 10.0 mi SSE 9.2 mph - N/A   Mostly Cloudy
2:52 PM 82.0 °F 87.9 °F 73.9 °F 76% 30.04 in 10.0 mi SE 12.7 mph 17.3 mph N/A   Mostly Cloudy
3:52 PM 82.0 °F 87.9 °F 73.9 °F 76% 30.02 in 10.0 mi SE 12.7 mph - N/A   Mostly Cloudy
4:52 PM 82.9 °F 89.4 °F 73.9 °F 74% 30.01 in 10.0 mi SSE 10.4 mph - N/A   Mostly Cloudy
5:52 PM 81.0 °F 85.8 °F 73.0 °F 77% 30.01 in 10.0 mi SSE 9.2 mph 18.4 mph N/A   Mostly Cloudy
6:52 PM 81.0 °F 85.2 °F 72.0 °F 74% 30.00 in 10.0 mi SSE 9.2 mph 16.1 mph N/A   Mostly Cloudy
7:52 PM 79.0 °F - 72.0 °F 79% 30.01 in 10.0 mi SSE 6.9 mph - N/A   Mostly Cloudy
8:52 PM 79.0 °F - 72.0 °F 79% 30.02 in 10.0 mi SSE 8.1 mph - N/A   Overcast
9:52 PM 78.1 °F - 73.0 °F 84% 30.02 in 10.0 mi SSE 6.9 mph - N/A   Overcast
10:52 PM 78.1 °F - 73.9 °F 87% 30.01 in 10.0 mi South 6.9 mph - N/A   Overcast
11:52 PM 78.1 °F - 73.9 °F 87% 30.01 in 10.0 mi South 6.9 mph - N/A   Clear